星链-37216(STARLINK-37216)

导读

STARLINK-37216(NORAD编号68391)是美国SpaceX“星链”低轨互联网星座的一颗卫星,2025年12月,该卫星在运行中出现异常,轨道高度骤降约4000米,SpaceX判断卫星大概率发生了内部爆炸,产生数十块空间碎片,且已与地面控制中心失联。 星链官方称该卫星仍大致保持完整,目前处于翻滚状态,预计会在数周内再入地球大气层烧毁,SpaceX正联合美国太空军、NASA持续监测碎片轨道。该事件再次引发业界对星链星座空间碎片与轨道安全的担忧。

Basic Information
目录编号:
68391
目录名称:
STARLINK-37216
国际标识:
2026-063M
轨道中心:
EARTH
卫星名称:
星链-37216
卫星全名:
星链-37216(STARLINK-37216)
卫星状态:
在轨 (已飞行169 天)
发射日期:
2026-03-26 UTC
国别 :
美国 (US)
星等 :
--
This satellite is enrolled in the Space Conjunction Data Service (SCDS) and the current flight risk assessment level is: No High Risk
Orbit Information
数据来源 国际轨道数据
星历时间: 2026-09-11T08:22:46+0800
14小时前
查看轨道信息
半长轴: 6843.658km
偏心率: 0.0000869
轨道倾角: 97.287°
近地点辐角 97.561°
升交点赤经 34.987°
平近点角 262.573°
近地点: 464.926km
远地点: 466.116km
周期: 93.906分钟
每日圈数: 15.334525
Detailed Information
固有亮度:
5
最大亮度:
2.5
卫星平台:
Starlink V1.0
覆盖范围:
全球
运营商:
太空探索技术公司
运营商所在国:
美国
制造商(研发单位):
太空探索技术公司
制造商所在国:
美国
使用方式:
暂无
Satellite Introduction
Starlink 计划是 SpaceX 推出的全球卫星互联网项目,通过发射低轨道卫星,为全球尤其是偏远地区提供高速、低延迟的互联网服务。自 2019 年起,Starlink 已部署数千颗卫星,旨在缩小全球数字鸿沟,推动互联网普及。该项目还为军事、航空等行业提供通信支持,带来广泛经济效益。
2D Orbit Map
3D Orbit Map
Orbit Altitude Analysis Chart
Orbit Inclination Analysis Chart
Orbit Comprehensive Analysis Chart
View Comprehensive Chart
Conjunction Data List
Event ID Objects TCA Miss Dist (km) Collision Risk Probability Collision Risk Index (CRI) Action
CDM_260912-152902-058006-839122
HST (20580)
2026-09-12T
15:29:44+0000
1.804 km
极远距离
3.569849E-6 低风险 0.46
CDM_260911-222606-410806-839121
2026-09-11T
22:26:58+0000
2.884 km
极远距离
1.389839E-6 低风险 0.38
CDM_260906-144504-837106-839121
2026-09-06T
14:45:51+0000
2.897 km
极远距离
1.389777E-6 低风险 0.38
CDM_260911-150104-791906-839121
2026-09-11T
15:01:21+0000
2.740 km
极远距离
1.331739E-6 低风险 0.37
Miss Distance Evolution Trend with All Objects
Collision Probability Evolution Trend with All Objects